�������l�o���
Date,Time,MP-1(��Sv/h),MP-2(��Sv/h),MP-3(��Sv/h),MP-4(��Sv/h),MP-5(��Sv/h),MP-6(��Sv/h),MP-7(��Sv/h),MP-8(��Sv/h),����,����(m/s),���J
2019/05/23,00:00,0.742,1.069,0.736,1.344,0.973,0.433,0.752,0.714,�쐼,1.7,��
2019/05/23,00:10,0.744,1.071,0.735,1.344,0.974,0.432,0.751,0.713,���쐼,1.5,��
2019/05/23,00:20,0.741,1.072,0.736,1.343,0.973,0.434,0.752,0.716,��,1.7,��
2019/05/23,00:30,0.744,1.070,0.737,1.345,0.974,0.432,0.750,0.714,���쐼,1.4,��
2019/05/23,00:40,0.742,1.073,0.737,1.346,0.972,0.433,0.753,0.715,��쓌,1.2,��
2019/05/23,00:50,0.742,1.070,0.736,1.344,0.974,0.433,0.752,0.714,�쓌,0.6,��
2019/05/23,01:00,0.742,1.071,0.736,1.344,0.973,0.432,0.752,0.712,�k�k��,1.1,��
2019/05/23,01:10,0.742,1.073,0.736,1.345,0.973,0.432,0.751,0.714,�k�k��,1.2,��
2019/05/23,01:20,0.742,1.071,0.735,1.345,0.975,0.433,0.752,0.714,�k��,1.2,��
2019/05/23,01:30,0.741,1.070,0.737,1.343,0.972,0.431,0.752,0.716,-,CALM,��
2019/05/23,01:40,0.740,1.074,0.736,1.346,0.973,0.432,0.751,0.715,�k�k��,2.3,��
2019/05/23,01:50,0.743,1.073,0.735,1.345,0.973,0.432,0.753,0.715,�k��,4.0,��
2019/05/23,02:00,0.740,1.071,0.737,1.343,0.975,0.432,0.752,0.713,�k��,3.8,��
2019/05/23,02:10,0.742,1.072,0.735,1.342,0.973,0.432,0.753,0.716,�k��,3.2,��
2019/05/23,02:20,0.743,1.068,0.736,1.344,0.973,0.433,0.753,0.716,�k�k��,3.8,��
2019/05/23,02:30,0.740,1.071,0.737,1.344,0.975,0.434,0.753,0.714,�k�k��,3.6,��
2019/05/23,02:40,0.742,1.071,0.736,1.341,0.975,0.433,0.751,0.713,�k��,4.3,��
2019/05/23,02:50,0.742,1.071,0.735,1.343,0.975,0.433,0.752,0.714,�k��,4.6,��
2019/05/23,03:00,0.741,1.072,0.736,1.342,0.974,0.432,0.751,0.714,�k�k��,4.4,��
2019/05/23,03:10,0.741,1.072,0.737,1.344,0.974,0.432,0.754,0.715,�k�k��,3.9,��
2019/05/23,03:20,0.740,1.069,0.736,1.345,0.971,0.433,0.752,0.715,�k�k��,3.8,��
2019/05/23,03:30,0.741,1.071,0.737,1.343,0.976,0.432,0.752,0.714,�k�k��,4.3,��
2019/05/23,03:40,0.741,1.071,0.736,1.345,0.974,0.434,0.752,0.715,�k�k��,4.7,��
2019/05/23,03:50,0.740,1.071,0.733,1.346,0.974,0.432,0.752,0.715,�k�k��,4.9,��
2019/05/23,04:00,0.742,1.068,0.736,1.345,0.974,0.433,0.753,0.714,�k�k��,4.4,��
2019/05/23,04:10,0.743,1.070,0.737,1.344,0.974,0.434,0.751,0.716,�k�k��,4.7,��
2019/05/23,04:20,0.740,1.068,0.736,1.347,0.972,0.432,0.753,0.714,�k�k��,4.3,��
2019/05/23,04:30,0.741,1.070,0.736,1.345,0.975,0.433,0.753,0.715,�k�k��,3.7,��
2019/05/23,04:40,0.743,1.071,0.737,1.344,0.975,0.432,0.752,0.713,�k�k��,4.8,��
2019/05/23,04:50,0.741,1.069,0.736,1.348,0.973,0.432,0.753,0.713,�k�k��,4.4,��
2019/05/23,05:00,0.741,1.071,0.735,1.345,0.973,0.431,0.752,0.713,�k�k��,4.2,��
2019/05/23,05:10,0.741,1.069,0.735,1.344,0.973,0.431,0.752,0.714,�k�k��,4.4,��
2019/05/23,05:20,0.741,1.070,0.736,1.345,0.975,0.434,0.754,0.715,�k�k��,4.8,��
2019/05/23,05:30,0.743,1.068,0.737,1.346,0.974,0.433,0.752,0.715,�k�k��,5.5,��
2019/05/23,05:40,0.742,1.068,0.736,1.346,0.973,0.432,0.754,0.714,�k�k��,5.4,��
2019/05/23,05:50,0.741,1.071,0.737,1.348,0.974,0.433,0.754,0.715,�k�k��,5.1,��
2019/05/23,06:00,0.741,1.070,0.737,1.348,0.974,0.431,0.753,0.714,�k�k��,5.2,��
2019/05/23,06:10,0.742,1.073,0.737,1.345,0.977,0.432,0.754,0.715,�k�k��,4.8,��
2019/05/23,06:20,0.743,1.073,0.737,1.347,0.976,0.433,0.756,0.715,�k�k��,4.7,��
2019/05/23,06:30,0.743,1.072,0.736,1.346,0.974,0.433,0.754,0.713,�k�k��,5.3,��
2019/05/23,06:40,0.744,1.072,0.737,1.347,0.975,0.434,0.755,0.715,�k�k��,5.6,��
2019/05/23,06:50,0.744,1.070,0.738,1.347,0.975,0.433,0.756,0.715,�k,4.0,��
2019/05/23,07:00,0.746,1.070,0.736,1.344,0.976,0.433,0.756,0.715,�k,4.4,��
2019/05/23,07:10,0.741,1.070,0.738,1.347,0.975,0.433,0.756,0.715,�k,3.5,��
2019/05/23,07:20,0.742,1.070,0.738,1.346,0.978,0.431,0.754,0.716,�k,2.2,��
2019/05/23,07:30,0.744,1.068,0.737,1.346,0.975,0.429,0.755,0.718,�k,3.2,��
2019/05/23,07:40,0.743,1.069,0.737,1.347,0.976,0.431,0.755,0.715,�k,1.7,��
2019/05/23,07:50,0.744,1.070,0.739,1.347,0.977,0.431,0.755,0.715,�k,2.6,��
2019/05/23,08:00,0.745,1.071,0.735,1.348,0.976,0.431,0.754,0.716,�k,2.6,��
2019/05/23,08:10,0.744,1.072,0.737,1.347,0.978,0.430,0.754,0.715,�k,3.3,��
2019/05/23,08:20,0.742,1.069,0.738,1.346,0.976,0.431,0.754,0.714,�k,3.0,��
2019/05/23,08:30,0.743,1.072,0.737,1.348,0.978,0.430,0.753,0.713,�k�k��,3.1,��
2019/05/23,08:40,0.744,1.070,0.737,1.347,0.978,0.431,0.754,0.714,�k�k��,3.9,��
2019/05/23,08:50,0.744,1.068,0.738,1.349,0.978,0.432,0.753,0.713,�k�k��,4.7,��
2019/05/23,09:00,0.744,1.071,0.737,1.346,0.977,0.430,0.752,0.713,�k�k��,5.0,��
2019/05/23,09:10,0.743,1.071,0.736,1.350,0.976,0.432,0.753,0.714,�k�k��,5.4,��
2019/05/23,09:20,0.744,1.069,0.734,1.349,0.977,0.430,0.754,0.714,�k,5.1,��
2019/05/23,09:30,0.744,1.072,0.735,1.350,0.979,0.431,0.753,0.716,�k,4.2,��
2019/05/23,09:40,0.746,1.073,0.736,1.348,0.975,0.432,0.753,0.714,�k�k��,3.6,��
2019/05/23,09:50,0.746,1.073,0.736,1.349,0.978,0.432,0.753,0.714,�k�k��,3.5,��
2019/05/23,10:00,0.747,1.074,0.736,1.348,0.977,0.432,0.754,0.713,�k,3.5,��
2019/05/23,10:10,0.745,1.074,0.737,1.349,0.978,0.432,0.754,0.713,�k,3.3,��
2019/05/23,10:20,0.747,1.074,0.738,1.349,0.982,0.431,0.755,0.713,�k�k��,3.2,��
2019/05/23,10:30,0.746,1.077,0.738,1.350,0.980,0.432,0.753,0.713,�k�k��,2.9,��
2019/05/23,10:40,0.745,1.075,0.737,1.349,0.983,0.431,0.754,0.715,�k�k��,2.6,��
2019/05/23,10:50,0.746,1.077,0.738,1.350,0.980,0.433,0.758,0.714,�k�k��,2.8,��
2019/05/23,11:00,0.747,1.076,0.736,1.347,0.982,0.436,0.755,0.717,�k��,3.1,��
2019/05/23,11:10,0.748,1.076,0.739,1.348,0.982,0.434,0.754,0.716,�k�k��,2.5,��
2019/05/23,11:20,0.747,1.078,0.739,1.348,0.983,0.433,0.754,0.714,�k��,2.5,��
2019/05/23,11:30,0.747,1.080,0.737,1.346,0.983,0.433,0.756,0.713,�k��,3.3,��
2019/05/23,11:40,0.748,1.076,0.741,1.346,0.983,0.432,0.756,0.715,�k��,3.3,��
2019/05/23,11:50,0.749,1.079,0.739,1.348,0.983,0.433,0.756,0.716,�k�k��,3.2,��
2019/05/23,12:00,0.747,1.081,0.740,1.346,0.986,0.436,0.755,0.715,�k��,2.6,��
2019/05/23,12:10,0.750,1.082,0.740,1.350,0.986,0.433,0.757,0.716,�k��,3.1,��
2019/05/23,12:20,0.748,1.079,0.740,1.349,0.986,0.434,0.754,0.714,�k��,3.1,��
2019/05/23,12:30,0.749,1.082,0.742,1.353,0.987,0.434,0.756,0.716,���k��,3.2,��
2019/05/23,12:40,0.750,1.080,0.742,1.350,0.987,0.434,0.757,0.716,���k��,3.0,��
2019/05/23,12:50,0.751,1.083,0.742,1.352,0.986,0.435,0.757,0.715,���k��,2.5,��
2019/05/23,13:00,0.751,1.082,0.742,1.352,0.987,0.435,0.758,0.715,��,2.6,��
2019/05/23,13:10,0.751,1.086,0.742,1.351,0.990,0.434,0.756,0.717,��,1.9,��
2019/05/23,13:20,0.750,1.082,0.742,1.353,0.988,0.436,0.758,0.715,���쓌,2.3,��
2019/05/23,13:30,0.753,1.083,0.742,1.353,0.986,0.433,0.757,0.714,���쓌,3.3,��
2019/05/23,13:40,0.751,1.081,0.741,1.351,0.990,0.433,0.757,0.715,���쓌,2.3,��
2019/05/23,13:50,0.751,1.083,0.740,1.352,0.989,0.435,0.758,0.715,�쓌,2.8,��
2019/05/23,14:00,0.753,1.084,0.744,1.353,0.992,0.435,0.758,0.716,���쓌,2.3,��
2019/05/23,14:10,0.752,1.084,0.742,1.354,0.991,0.435,0.758,0.716,���쓌,2.3,��
2019/05/23,14:20,0.751,1.085,0.743,1.354,0.990,0.435,0.757,0.715,�쓌,2.8,��
2019/05/23,14:30,0.752,1.084,0.744,1.354,0.989,0.434,0.757,0.716,���쓌,2.0,��
2019/05/23,14:40,0.754,1.088,0.744,1.354,0.993,0.434,0.757,0.718,���쓌,2.0,��
2019/05/23,14:50,0.752,1.089,0.743,1.355,0.992,0.436,0.757,0.718,�쓌,2.9,��
2019/05/23,15:00,0.753,1.088,0.742,1.356,0.993,0.435,0.758,0.717,�쓌,2.5,��
2019/05/23,15:10,0.753,1.091,0.743,1.358,0.991,0.436,0.758,0.717,�쓌,3.4,��
2019/05/23,15:20,0.752,1.088,0.742,1.355,0.992,0.434,0.757,0.716,�쓌,3.1,��
2019/05/23,15:30,0.754,1.089,0.744,1.357,0.992,0.436,0.757,0.715,�쓌,2.8,��
2019/05/23,15:40,0.752,1.092,0.746,1.356,0.994,0.434,0.760,0.718,�쓌,2.8,��
2019/05/23,15:50,0.753,1.092,0.744,1.358,0.994,0.435,0.757,0.717,�쓌,3.7,��
2019/05/23,16:00,0.756,1.093,0.745,1.355,0.993,0.435,0.759,0.717,�쓌,4.3,��
2019/05/23,16:10,0.752,1.093,0.745,1.356,0.993,0.436,0.759,0.716,��쓌,4.1,��
2019/05/23,16:20,0.755,1.094,0.743,1.359,0.993,0.436,0.758,0.718,��쓌,3.6,��
2019/05/23,16:30,0.754,1.093,0.744,1.359,0.994,0.436,0.758,0.716,��쓌,3.5,��
2019/05/23,16:40,0.756,1.096,0.744,1.358,0.993,0.437,0.759,0.717,��,3.4,��
2019/05/23,16:50,0.754,1.095,0.745,1.358,0.992,0.436,0.757,0.718,��쓌,3.7,��
2019/05/23,17:00,0.756,1.093,0.745,1.357,0.991,0.436,0.756,0.717,��쓌,4.1,��
2019/05/23,17:10,0.752,1.098,0.743,1.357,0.994,0.437,0.757,0.717,��,4.5,��
2019/05/23,17:20,0.753,1.095,0.744,1.362,0.993,0.436,0.757,0.718,��,3.8,��
2019/05/23,17:30,0.755,1.097,0.747,1.360,0.992,0.436,0.758,0.718,��,4.1,��
2019/05/23,17:40,0.752,1.098,0.746,1.357,0.993,0.437,0.758,0.718,��,4.7,��
2019/05/23,17:50,0.753,1.099,0.745,1.362,0.992,0.437,0.757,0.718,��,5.1,��
2019/05/23,18:00,0.752,1.098,0.744,1.360,0.996,0.438,0.757,0.719,��,5.1,��
2019/05/23,18:10,0.754,1.098,0.747,1.359,0.994,0.437,0.758,0.720,��,5.5,��
2019/05/23,18:20,0.753,1.100,0.745,1.359,0.994,0.436,0.756,0.720,��,6.6,��
2019/05/23,18:30,0.754,1.099,0.745,1.362,0.992,0.438,0.756,0.719,��,7.3,��
2019/05/23,18:40,0.753,1.098,0.745,1.359,0.995,0.437,0.757,0.719,��,6.6,��
2019/05/23,18:50,0.754,1.099,0.748,1.362,0.995,0.438,0.756,0.720,��,5.3,��
2019/05/23,19:00,0.757,1.099,0.747,1.361,0.998,0.438,0.757,0.721,��,3.8,��
2019/05/23,19:10,0.757,1.096,0.750,1.363,0.996,0.438,0.757,0.719,��,6.4,��
2019/05/23,19:20,0.758,1.099,0.748,1.363,0.996,0.439,0.758,0.719,��,6.6,��
2019/05/23,19:30,0.757,1.099,0.748,1.365,0.997,0.437,0.760,0.717,��쐼,5.4,��
2019/05/23,19:40,0.756,1.098,0.749,1.363,0.997,0.438,0.760,0.719,��쐼,6.0,��
2019/05/23,19:50,0.755,1.097,0.748,1.365,0.997,0.437,0.758,0.719,��쐼,6.1,��
2019/05/23,20:00,0.758,1.098,0.748,1.362,0.997,0.438,0.759,0.718,��쐼,5.4,��
2019/05/23,20:10,0.756,1.098,0.747,1.363,0.997,0.438,0.760,0.719,��쐼,5.1,��
2019/05/23,20:20,0.757,1.099,0.747,1.364,0.998,0.439,0.760,0.720,��쐼,4.9,��
2019/05/23,20:30,0.756,1.098,0.748,1.364,0.998,0.437,0.759,0.719,��쐼,5.0,��
2019/05/23,20:40,0.756,1.096,0.748,1.365,0.996,0.439,0.759,0.720,��쐼,4.6,��
2019/05/23,20:50,0.756,1.098,0.747,1.364,0.995,0.437,0.757,0.719,��쐼,4.7,��
2019/05/23,21:00,0.758,1.097,0.748,1.365,0.997,0.439,0.757,0.720,��쐼,4.1,��
2019/05/23,21:10,0.756,1.099,0.748,1.363,0.995,0.438,0.759,0.719,��쐼,3.8,��
2019/05/23,21:20,0.757,1.098,0.748,1.365,0.994,0.439,0.758,0.719,��쐼,4.6,��
2019/05/23,21:30,0.753,1.097,0.746,1.365,0.996,0.439,0.758,0.718,��쐼,4.1,��
2019/05/23,21:40,0.756,1.099,0.747,1.366,0.997,0.439,0.760,0.718,��쐼,3.2,��
2019/05/23,21:50,0.756,1.096,0.747,1.366,0.995,0.437,0.759,0.719,��쐼,2.6,��
2019/05/23,22:00,0.756,1.095,0.748,1.365,0.997,0.437,0.758,0.720,�쐼,2.6,��
2019/05/23,22:10,0.755,1.098,0.747,1.364,0.996,0.438,0.758,0.719,�쐼,3.5,��
2019/05/23,22:20,0.754,1.096,0.749,1.365,0.995,0.438,0.759,0.719,�쐼,2.0,��
2019/05/23,22:30,0.755,1.095,0.746,1.364,0.994,0.437,0.757,0.720,�쐼,2.5,��
2019/05/23,22:40,0.756,1.097,0.748,1.365,0.996,0.437,0.760,0.719,���쐼,3.0,��
2019/05/23,22:50,0.754,1.096,0.747,1.365,0.995,0.438,0.757,0.718,�쐼,2.3,��
2019/05/23,23:00,0.756,1.095,0.749,1.365,0.996,0.439,0.759,0.720,���쐼,2.0,��
2019/05/23,23:10,0.756,1.095,0.747,1.364,0.995,0.436,0.758,0.718,�쐼,2.9,��
2019/05/23,23:20,0.755,1.095,0.746,1.365,0.994,0.439,0.759,0.718,�쐼,4.0,��
2019/05/23,23:30,0.754,1.094,0.746,1.363,0.995,0.437,0.760,0.719,��쐼,3.9,��
2019/05/23,23:40,0.754,1.096,0.749,1.366,0.996,0.437,0.760,0.719,��쐼,4.4,��
2019/05/23,23:50,0.756,1.095,0.747,1.365,0.995,0.438,0.760,0.719,�쐼,4.2,��
